"TOA5","MOW","CPU:UNC_MeetingWaters","DataHourly"
"TIMESTAMP","SondeTempC","SpCond","DOSat","DOmg","pH","Turb","BattVolt_Min"
"TS","","","","","","",""
"","Smp","Smp","Smp","Smp","Smp","Smp","Min"
"2009-01-23 17:00:00",8.72999954224,0.00200000009499,102.800003052,98.4000015259,5.07999992371,2.0,14.3000001907
"2009-01-23 18:00:00",9.40999984741,0.0010000000475,104.5,85.5,5.30999994278,4.09999990463,13.6300001144
"2009-01-23 19:00:00",9.35000038147,0.0,104.699996948,83.9000015259,5.34000015259,4.40000009537,13.5399999619
"2009-01-23 20:00:00",9.06999969482,0.0,101.199996948,91.4000015259,5.21000003815,5.80000019073,13.3100004196
"2009-01-23 21:00:00",8.46000003815,0.0,95.9000015259,95.5999984741,5.13000011444,10.3999996185,13.0699996948
"2009-01-23 22:00:00",6.90999984741,0.0010000000475,95.5999984741,90.5999984741,5.19999980927,3.5,12.9600000381
"2009-01-23 23:00:00",5.96999979019,0.0010000000475,105.699996948,36.5999984741,6.19000005722,3.59999990463,12.9099998474
"2009-01-24 00:00:00",5.34000015259,0.00200000009499,105.5,65.0999984741,5.65999984741,1.10000002384,12.8800001144
"2009-01-24 01:00:00",4.84999990463,0.00300000002608,105.199996948,18.2000007629,6.51999998093,1.20000004768,12.8400001526
"2009-01-24 02:00:00",5.36999988556,0.00300000002608,105.099998474,-4.19999980927,6.94000005722,1.20000004768,12.8199996948
"2009-01-24 03:00:00",5.69000005722,0.00300000002608,105.199996948,-5.5,6.96000003815,1.10000002384,12.8000001907
"2009-01-24 04:00:00",5.80999994278,0.00300000002608,105.0,-6.19999980927,6.96999979019,1.10000002384,12.779999733
"2009-01-24 05:00:00",6.21999979019,0.00400000018999,105.199996948,-6.90000009537,6.98999977112,1.39999997616,12.75
"2009-01-24 06:00:00",6.34000015259,0.00400000018999,105.0,-5.5,6.96000003815,1.20000004768,12.720000267
"2009-01-24 07:00:00",6.5,0.00400000018999,105.099998474,-5.30000019073,6.96000003815,1.70000004768,12.7100000381
"2009-01-24 08:00:00",6.61000013351,0.00400000018999,104.900001526,-5.09999990463,6.94999980927,1.20000004768,12.7100000381
"2009-01-24 09:00:00",6.69000005722,0.00499999988824,104.900001526,-4.90000009537,6.94999980927,1.10000002384,12.6999998093
"2009-01-24 10:00:00",6.55000019073,0.00499999988824,105.099998474,-4.80000019073,6.94999980927,1.20000004768,12.6899995804
"2009-01-24 11:00:00",6.21000003815,0.00499999988824,105.300003052,-5.30000019073,6.96000003815,1.10000002384,12.6899995804
"2009-01-24 12:00:00",6.23000001907,0.00499999988824,105.099998474,-6.30000019073,6.96999979019,1.0,12.6899995804
"2009-01-24 13:00:00",6.67999982834,0.00600000005215,105.0,-7.19999980927,6.98999977112,1.0,12.7100000381
"2009-01-24 14:00:00",7.40999984741,0.00600000005215,105.300003052,-8.0,7.0,1.20000004768,12.8400001526
"2009-01-24 15:00:00",7.84000015259,0.00600000005215,105.300003052,-3.70000004768,6.92999982834,1.10000002384,13.0699996948
"2009-01-24 16:00:00",8.5,0.00400000018999,103.900001526,92.3000030518,5.19000005722,1.0,13.3199996948
"2009-01-24 17:00:00",9.98999977112,0.0010000000475,95.6999969482,97.4000015259,5.09999990463,6.30000019073,13.4300003052
"2009-01-24 18:00:00",10.7600002289,0.0,95.5,91.6999969482,5.21000003815,42.0,14.2700004578
"2009-01-24 19:00:00",10.6499996185,0.0,103.300003052,90.9000015259,5.21999979019,6.90000009537,14.2700004578
"2009-01-24 20:00:00",10.6499996185,0.0,103.300003052,90.9000015259,5.21999979019,6.90000009537,14.279999733
"2009-01-24 21:00:00",9.46000003815,0.0,103.900001526,84.5999984741,5.32999992371,1.29999995232,13.1199998856
"2009-01-24 22:00:00",8.10000038147,0.0,105.199996948,93.9000015259,5.15000009537,1.29999995232,12.9600000381
"2009-01-24 23:00:00",7.34999990463,0.0,104.800003052,88.0999984741,5.25,1.29999995232,12.9200000763
"2009-01-25 00:00:00",6.44999980927,0.0,105.5,40.9000015259,6.11000013351,1.29999995232,12.8900003433
"2009-01-25 01:00:00",5.40000009537,0.0,105.699996948,24.2999992371,6.40999984741,1.70000004768,12.8599996567
"2009-01-25 02:00:00",4.96000003815,0.0,105.599998474,63.5999984741,5.69000005722,1.39999997616,12.8100004196
"2009-01-25 03:00:00",4.48999977112,0.0,105.199996948,60.2000007629,5.75,1.10000002384,12.8000001907
"2009-01-25 04:00:00",3.52999997139,0.0,105.699996948,60.0999984741,5.75,1.20000004768,12.7700004578
"2009-01-25 05:00:00",2.88000011444,0.0,105.599998474,55.5999984741,5.82999992371,1.29999995232,12.7399997711
"2009-01-25 06:00:00",3.00999999046,0.0,105.900001526,52.0999984741,5.88999986649,1.10000002384,12.7100000381
"2009-01-25 07:00:00",1.94000005722,0.0,105.699996948,48.7999992371,5.94999980927,1.20000004768,12.6899995804
"2009-01-25 08:00:00",1.58000004292,0.0,105.699996948,46.9000015259,5.98000001907,1.20000004768,12.6700000763
"2009-01-25 09:00:00",1.64999997616,0.0,106.0,45.2000007629,6.01999998093,1.20000004768,12.6499996185
"2009-01-25 10:00:00",1.42999994755,0.0,106.199996948,44.5999984741,6.03000020981,1.60000002384,12.6400003433
"2009-01-25 11:00:00",1.28999996185,0.0,107.0,44.7999992371,6.01999998093,1.29999995232,12.6300001144
"2009-01-25 12:00:00",1.20000004768,0.0,105.800003052,44.2000007629,6.03000020981,1.10000002384,12.6300001144
"2009-01-25 13:00:00",1.33000004292,0.0,105.800003052,44.5999984741,6.03000020981,1.89999997616,12.6700000763
"2009-01-25 14:00:00",1.64999997616,0.0,106.099998474,43.7000007629,6.03999996185,1.89999997616,12.9399995804
"2009-01-25 15:00:00",1.71000003815,0.0,106.400001526,43.9000015259,6.03999996185,1.20000004768,13.2299995422
"2009-01-25 16:00:00",2.04999995232,0.0,106.5,46.0,6.0,1.5,13.529999733
"2009-01-25 17:00:00",2.31999993324,0.0,106.400001526,47.5999984741,5.96999979019,2.29999995232,13.6499996185
"2009-01-25 18:00:00",2.36999988556,0.0,106.400001526,47.5,5.98000001907,1.39999997616,13.5799999237
"2009-01-25 19:00:00",2.81999993324,0.0,106.300003052,46.2999992371,6.0,1.39999997616,13.6800003052
"2009-01-25 20:00:00",2.75999999046,0.0,106.5,48.0,5.96999979019,1.5,14.6000003815
"2009-01-25 21:00:00",2.84999990463,0.0,106.300003052,46.7999992371,5.98999977112,1.5,13.25
"2009-01-25 22:00:00",2.30999994278,0.0,106.5,45.4000015259,6.01999998093,1.39999997616,12.9399995804
"2009-01-25 23:00:00",1.67999994755,0.0,106.400001526,44.9000015259,6.01999998093,1.39999997616,12.8900003433
"2009-01-26 00:00:00",0.920000016689,0.0,106.5,38.7999992371,6.13000011444,1.39999997616,12.8400001526
"2009-01-26 01:00:00",1.09000003338,0.0,106.5,39.2000007629,6.13000011444,1.39999997616,12.8299999237
"2009-01-26 02:00:00",1.47000002861,0.0,106.599998474,40.5999984741,6.09999990463,1.39999997616,12.7899999619
"2009-01-26 03:00:00",1.53999996185,0.0,106.400001526,40.2999992371,6.11000013351,1.39999997616,12.779999733
"2009-01-26 04:00:00",1.55999994278,0.0,106.400001526,39.9000015259,6.11000013351,2.59999990463,12.75
"2009-01-26 05:00:00",1.66999995708,0.0,106.400001526,40.2999992371,6.11000013351,1.39999997616,12.7100000381
"2009-01-26 06:00:00",1.62000000477,0.0,106.400001526,40.9000015259,6.09999990463,1.5,12.6599998474
"2009-01-26 07:00:00",1.74000000954,0.0,106.300003052,40.5,6.09999990463,1.5,12.6599998474
"2009-01-26 08:00:00",1.79999995232,0.0,106.099998474,41.5,6.09000015259,1.29999995232,12.6499996185
"2009-01-26 09:00:00",1.75999999046,0.0,106.300003052,41.5,6.07999992371,1.39999997616,12.6400003433
"2009-01-26 10:00:00",1.75,0.0,106.300003052,41.5,6.09000015259,1.39999997616,12.6400003433
"2009-01-26 11:00:00",1.97000002861,0.0,106.199996948,42.5,6.07000017166,1.39999997616,12.6300001144
"2009-01-26 12:00:00",1.92999994755,0.0,106.400001526,43.5,6.05000019073,1.39999997616,12.6300001144
"2009-01-26 13:00:00",2.61999988556,0.0,106.199996948,42.4000015259,6.07000017166,1.39999997616,12.6499996185
"2009-01-26 14:00:00",3.0,0.0,106.300003052,43.7000007629,6.05000019073,1.39999997616,13.0500001907
"2009-01-26 15:00:00",3.8599998951,0.0,106.099998474,46.7999992371,5.98999977112,1.29999995232,13.3900003433
"2009-01-26 16:00:00",5.15999984741,0.0,106.199996948,50.0,5.94000005722,1.39999997616,14.1099996567
"2009-01-26 17:00:00",6.90999984741,0.0,105.800003052,52.2000007629,5.90999984741,1.29999995232,14.4899997711
"2009-01-26 18:00:00",7.59000015259,0.0,105.800003052,102.5,4.98999977112,1.29999995232,14.4499998093
"2009-01-26 19:00:00",7.30999994278,0.0,105.900001526,101.800003052,5.0,1.39999997616,14.4600000381
"2009-01-26 20:00:00",7.13999986649,0.0,105.599998474,104.300003052,4.96000003815,1.39999997616,14.4499998093
"2009-01-26 21:00:00",6.98999977112,0.0,106.199996948,101.5,5.01000022888,1.29999995232,13.1899995804
"2009-01-26 22:00:00",6.32000017166,0.0,106.300003052,102.400001526,4.98999977112,1.39999997616,12.970000267
"2009-01-26 23:00:00",6.05999994278,0.0,106.5,28.1000003815,6.34999990463,1.5,12.9300003052
"2009-01-27 00:00:00",5.88999986649,0.0,106.400001526,28.3999996185,6.34000015259,1.39999997616,12.8999996185
"2009-01-27 01:00:00",5.80999994278,0.0,106.5,27.2000007629,6.36000013351,1.29999995232,12.8800001144
"2009-01-27 02:00:00",5.73000001907,0.0,106.400001526,26.7999992371,6.36999988556,1.29999995232,12.8500003815
"2009-01-27 03:00:00",5.46999979019,0.0,106.300003052,24.7999992371,6.40000009537,1.20000004768,12.8299999237
"2009-01-27 04:00:00",4.73000001907,0.0,106.5,23.0,6.44000005722,1.29999995232,12.8000001907
"2009-01-27 05:00:00",3.90000009537,0.0010000000475,106.699996948,67.3000030518,5.61999988556,1.39999997616,12.779999733
"2009-01-27 06:00:00",4.03000020981,0.0010000000475,106.599998474,58.4000015259,5.78000020981,1.39999997616,12.7399997711
"2009-01-27 07:00:00",4.55999994278,0.0,106.400001526,52.5999984741,5.88999986649,1.39999997616,12.7100000381
"2009-01-27 08:00:00",4.80000019073,0.0,106.5,49.5999984741,5.94999980927,1.39999997616,12.6899995804
"2009-01-27 09:00:00",4.86999988556,0.0,106.5,45.0,6.03000020981,1.29999995232,12.6800003052
"2009-01-27 10:00:00",4.94000005722,0.0,106.5,43.4000015259,6.05999994278,1.29999995232,12.6700000763
"2009-01-27 11:00:00",4.90000009537,0.0,106.5,40.0,6.11999988556,1.39999997616,12.6700000763
"2009-01-27 12:00:00",5.05999994278,0.0,106.599998474,28.5,6.32999992371,1.39999997616,12.6700000763
"2009-01-27 13:00:00",5.44000005722,0.0,106.699996948,25.2999992371,6.40000009537,1.39999997616,12.6899995804
"2009-01-27 14:00:00",5.78999996185,0.0,106.599998474,21.2999992371,6.46999979019,1.39999997616,12.7600002289
"2009-01-27 15:00:00",5.38999986649,0.00200000009499,106.5,9.30000019073,6.69000005722,1.5,12.7899999619
"2009-01-27 16:00:00",5.38999986649,0.00499999988824,102.199996948,5.59999990463,6.76000022888,26.8999996185,13.029999733
"2009-01-27 17:00:00",7.21000003815,0.00899999961257,107.300003052,-54.0999984741,7.84999990463,84.5999984741,13.1499996185
"2009-01-27 18:00:00",6.67000007629,0.0120000001043,92.4000015259,-65.6999969482,8.06000041962,69.0999984741,13.1400003433
"2009-01-27 19:00:00",6.73999977112,0.0219999998808,85.9000015259,-63.7999992371,8.02999973297,106.300003052,13.029999733
"2009-01-27 20:00:00",6.73999977112,0.0260000005364,81.4000015259,-60.5,7.96000003815,85.3000030518,12.8599996567
"2009-01-27 21:00:00",6.80999994278,0.0280000008643,79.8000030518,-57.0999984741,7.90000009537,108.599998474,12.75
"2009-01-27 22:00:00",6.40999984741,0.0309999994934,77.8000030518,-53.4000015259,7.84000015259,130.100006104,12.6999998093
"2009-01-27 23:00:00",6.63000011444,0.0320000015199,79.0999984741,-50.5,7.78000020981,974.0,12.6700000763
"2009-01-28 00:00:00",6.44999980927,0.0329999998212,106.5,-47.7999992371,7.73000001907,4.80000019073,12.6599998474
"2009-01-28 01:00:00",6.36999988556,0.0340000018477,106.099998474,-45.2000007629,7.69000005722,2.5,12.6499996185
"2009-01-28 02:00:00",6.19000005722,0.035000000149,105.599998474,-43.0999984741,7.65000009537,1.10000002384,12.6499996185
"2009-01-28 03:00:00",6.19999980927,0.035000000149,106.0,-41.4000015259,7.61999988556,1.0,12.6499996185
"2009-01-28 04:00:00",6.21000003815,0.0379999987781,105.400001526,-40.0999984741,7.59000015259,1.20000004768,12.6499996185
"2009-01-28 05:00:00",6.26000022888,0.0419999994338,105.699996948,-38.7000007629,7.57000017166,1.0,12.6400003433
"2009-01-28 06:00:00",6.15999984741,0.0450000017881,105.199996948,-37.7000007629,7.55000019073,0.899999976158,12.6400003433
"2009-01-28 07:00:00",6.30000019073,0.0480000004172,105.599998474,-36.7000007629,7.53000020981,1.0,12.6400003433
"2009-01-28 08:00:00",6.46999979019,0.0500000007451,105.800003052,-36.2999992371,7.51999998093,1.0,12.6400003433
"2009-01-28 09:00:00",6.46999979019,0.0520000010729,106.300003052,-35.2999992371,7.5,1.0,12.6400003433
"2009-01-28 10:00:00",6.59000015259,0.0529999993742,106.0,-34.7999992371,7.48999977112,2.20000004768,12.6099996567
"2009-01-28 11:00:00",6.69000005722,0.054999999702,88.9000015259,-34.0999984741,7.48000001907,30.7999992371,12.6300001144
"2009-01-28 12:00:00",6.84000015259,0.054999999702,79.0,-33.5,7.46999979019,15.3000001907,12.6099996567
"2009-01-28 13:00:00",7.13999986649,0.0540000014007,75.1999969482,-32.7999992371,7.46000003815,14.6000003815,12.6300001144
"2009-01-28 14:00:00",7.76999998093,0.054999999702,78.1999969482,-32.5999984741,7.44999980927,15.6000003815,12.6800003052
"2009-01-28 15:00:00",8.51000022888,0.0560000017285,81.1999969482,-31.7999992371,7.44000005722,15.0,13.0
"2009-01-28 16:00:00",12.4399995804,0.0599999986589,83.5999984741,68.9000015259,5.63000011444,32.5,13.1000003815
"2009-01-28 17:00:00",12.9200000763,0.0610000006855,87.0,54.5999984741,5.88999986649,2.90000009537,13.3500003815
"2009-01-28 18:00:00",13.2600002289,0.0540000014007,85.3000030518,34.9000015259,6.23999977112,32.0999984741,13.1599998474
"2009-01-28 19:00:00",13.3000001907,0.0430000014603,82.6999969482,29.6000003815,6.32999992371,15.8000001907,13.0600004196
"2009-01-28 20:00:00",13.9499998093,0.0270000007004,102.800003052,26.7000007629,6.38999986649,0.899999976158,13.0
"2009-01-28 21:00:00",13.4600000381,0.247999995947,100.699996948,-7.0,6.98999977112,1577.0,12.9200000763
"2009-01-28 22:00:00",13.0399999619,0.244000002742,98.4000015259,-24.2000007629,7.28999996185,1572.0,12.8900003433
"2009-01-28 23:00:00",12.6599998474,0.286000013351,96.1999969482,-19.5,7.21000003815,802.0,12.8599996567
"2009-01-29 00:00:00",12.3199996948,0.194000005722,93.6999969482,-13.8999996185,7.11000013351,437.799987793,12.8299999237
"2009-01-29 01:00:00",11.8900003433,0.0130000002682,92.0,-19.2000007629,7.21000003815,286.299987793,12.7899999619
"2009-01-29 02:00:00",10.220000267,0.00999999977648,91.0999984741,-6.5,6.98000001907,192.5,12.7600002289
"2009-01-29 03:00:00",8.76000022888,0.00999999977648,92.6999969482,34.2999992371,6.23999977112,131.300003052,12.7299995422
"2009-01-29 04:00:00",8.23999977112,0.00999999977648,92.4000015259,44.5999984741,6.05000019073,94.5,12.6899995804
"2009-01-29 05:00:00",7.09000015259,0.00999999977648,93.0999984741,50.2000007629,5.94000005722,71.1999969482,12.6700000763
"2009-01-29 06:00:00",6.32999992371,0.00899999961257,94.5,-23.8999996185,7.30000019073,53.4000015259,12.6499996185
"2009-01-29 07:00:00",5.75,0.00899999961257,95.4000015259,17.2000007629,6.53999996185,44.5,12.6300001144
"2009-01-29 08:00:00",5.09999990463,0.00899999961257,97.8000030518,29.1000003815,6.32000017166,36.0999984741,12.6199998856
"2009-01-29 09:00:00",4.32999992371,0.00899999961257,99.0,23.7000007629,6.42000007629,29.7000007629,12.6099996567
"2009-01-29 10:00:00",3.38000011444,0.00899999961257,98.4000015259,31.2000007629,6.28000020981,27.5,12.6000003815
"2009-01-29 11:00:00",3.16000008583,0.00899999961257,98.8000030518,24.2999992371,6.40999984741,23.2999992371,12.5900001526
"2009-01-29 12:00:00",2.53999996185,0.00899999961257,100.5,26.7999992371,6.36000013351,21.8999996185,12.5900001526
"2009-01-29 13:00:00",3.6400001049,0.00899999961257,102.099998474,24.0,6.40999984741,22.8999996185,12.6199998856
"2009-01-29 14:00:00",5.11000013351,0.00800000037998,104.199996948,29.8999996185,6.30999994278,25.8999996185,12.8000001907
"2009-01-29 15:00:00",6.25,0.00700000021607,106.199996948,33.9000015259,6.23999977112,1486.0,13.2899999619
"2009-01-29 16:00:00",8.46000003815,0.00600000005215,111.599998474,28.8999996185,6.34000015259,8.30000019073,13.3999996185
"2009-01-29 17:00:00",11.8100004196,0.0010000000475,113.199996948,82.9000015259,5.36999988556,5.69999980927,14.3900003433
"2009-01-29 18:00:00",10.8000001907,0.0,105.599998474,84.5999984741,5.34000015259,5.19999980927,13.6000003815
"2009-01-29 19:00:00",11.4600000381,0.0,103.699996948,84.5,5.34000015259,2.0,13.4799995422
"2009-01-29 20:00:00",10.3400001526,0.0,101.400001526,83.6999969482,5.34999990463,4.19999980927,13.5500001907
"2009-01-29 21:00:00",9.39999961853,0.0,100.5,59.2000007629,5.78999996185,1525.0,13.1800003052
"2009-01-29 22:00:00",7.40999984741,0.0,106.400001526,74.0,5.51000022888,2.0,12.9799995422
"2009-01-29 23:00:00",6.28999996185,0.0010000000475,107.199996948,42.5,6.07999992371,2.79999995232,12.9300003052
"2009-01-30 00:00:00",5.11000013351,0.0010000000475,107.099998474,62.4000015259,5.71000003815,2.0,12.8900003433
"2009-01-30 01:00:00",4.48999977112,0.0010000000475,107.400001526,50.2000007629,5.92999982834,2.0,12.8699998856
"2009-01-30 02:00:00",3.80999994278,0.00200000009499,106.099998474,46.9000015259,5.98999977112,2.20000004768,12.8500003815
"2009-01-30 03:00:00",3.41000008583,0.00200000009499,107.400001526,43.0,6.05999994278,2.20000004768,12.8199996948
"2009-01-30 04:00:00",2.69000005722,0.00200000009499,107.5,39.4000015259,6.13000011444,2.20000004768,12.8000001907
"2009-01-30 05:00:00",2.28999996185,0.00300000002608,107.900001526,39.4000015259,6.13000011444,2.0,12.779999733
"2009-01-30 06:00:00",1.98000001907,0.00300000002608,107.5,33.7000007629,6.23000001907,1.89999997616,12.7700004578
"2009-01-30 07:00:00",1.47000002861,0.00300000002608,107.400001526,24.8999996185,6.38999986649,2.40000009537,12.75
"2009-01-30 08:00:00",1.40999996662,0.00300000002608,106.800003052,19.8999996185,6.48999977112,3.20000004768,12.7399997711
"2009-01-30 09:00:00",1.02999997139,0.00300000002608,106.599998474,22.6000003815,6.44000005722,2.09999990463,12.720000267
"2009-01-30 10:00:00",0.959999978542,0.00400000018999,106.5,19.7000007629,6.48999977112,1.89999997616,12.7100000381
"2009-01-30 11:00:00",0.449999988079,0.00400000018999,106.0,-6.30000019073,6.96999979019,2.40000009537,12.6800003052
"2009-01-30 12:00:00",1.25,0.00400000018999,105.300003052,-14.8999996185,7.13000011444,2.09999990463,12.6800003052
"2009-01-30 13:00:00",2.3599998951,0.00400000018999,106.099998474,-18.1000003815,7.19000005722,1.79999995232,12.7399997711
"2009-01-30 14:00:00",3.97000002861,0.00400000018999,105.099998474,-21.6000003815,7.26000022888,1.79999995232,13.3800001144
"2009-01-30 15:00:00",6.40000009537,0.0010000000475,107.900001526,6.80000019073,6.73000001907,1483.0,13.5399999619
"2009-01-30 16:00:00",8.31000041962,0.0,110.199996948,70.1999969482,5.59000015259,14.3000001907,13.720000267
"2009-01-30 17:00:00",10.470000267,0.0,101.699996948,85.0999984741,5.32999992371,12.3999996185,13.6599998474
"2009-01-30 18:00:00",9.67000007629,0.0,102.800003052,94.5,5.15000009537,9.10000038147,13.6499996185
"2009-01-30 19:00:00",9.47000026703,0.0,102.599998474,92.1999969482,5.19000005722,10.3000001907,13.6599998474
"2009-01-30 20:00:00",7.69000005722,0.0,101.900001526,99.4000015259,5.05000019073,13.1999998093,13.8800001144
"2009-01-30 21:00:00",6.69000005722,0.0,103.099998474,92.5999984741,5.17000007629,5.5,13.0699996948
"2009-01-30 22:00:00",5.26000022888,0.0,105.099998474,34.0999984741,6.23000001907,7.59999990463,12.9399995804
"2009-01-30 23:00:00",4.94999980927,0.0,104.099998474,66.0999984741,5.63999986649,7.69999980927,12.8999996185
"2009-01-31 00:00:00",3.80999994278,0.0,104.900001526,57.2000007629,5.80000019073,7.80000019073,12.8599996567
"2009-01-31 01:00:00",3.32999992371,0.0,104.900001526,52.0,5.90000009537,8.10000038147,12.8400001526
"2009-01-31 02:00:00",3.08999991417,0.0,105.300003052,54.7999992371,5.84000015259,7.69999980927,12.8199996948
"2009-01-31 03:00:00",2.65000009537,0.0,104.900001526,52.0,5.88999986649,7.69999980927,12.8000001907
"2009-01-31 04:00:00",2.01999998093,0.0,105.300003052,45.7000007629,6.01000022888,7.80000019073,12.75
"2009-01-31 05:00:00",1.05999994278,0.0,105.699996948,40.0,6.11000013351,8.39999961853,12.7399997711
"2009-01-31 06:00:00",0.670000016689,0.0,105.800003052,35.5999984741,6.19000005722,8.5,12.720000267
"2009-01-31 07:00:00",0.15000000596,0.0,105.5,33.0999984741,6.23999977112,10.3000001907,12.6899995804
"2009-01-31 08:00:00",0.15000000596,0.0,105.400001526,29.7000007629,6.30000019073,179.100006104,12.6700000763
"2009-01-31 09:00:00",-0.509999990463,0.0,105.199996948,28.8999996185,6.30999994278,8.80000019073,12.6499996185
"2009-01-31 10:00:00",-1.24000000954,0.0,108.900001526,26.7000007629,6.34999990463,11.3000001907,12.6300001144
"2009-01-31 11:00:00",-1.62000000477,0.0,104.699996948,9.19999980927,6.67999982834,4.59999990463,12.6199998856
"2009-01-31 12:00:00",-1.60000002384,0.0010000000475,96.6999969482,4.40000009537,6.76999998093,9.0,12.6199998856
"2009-01-31 13:00:00",-0.930000007153,0.0010000000475,92.6999969482,-0.40000000596,6.86000013351,10.6999998093,12.6499996185
"2009-01-31 14:00:00",1.42999994755,0.0,103.199996948,32.0999984741,6.26000022888,9.60000038147,12.8299999237
"2009-01-31 15:00:00",3.50999999046,0.0,103.099998474,39.7999992371,6.11999988556,10.1000003815,13.4200000763
"2009-01-31 16:00:00",7.26999998093,0.0,103.099998474,48.0999984741,5.98000001907,9.19999980927,13.720000267
"2009-01-31 17:00:00",8.56000041962,0.0,107.599998474,104.800003052,4.96000003815,7.09999990463,14.4799995422
"2009-01-31 18:00:00",8.27000045776,0.0,107.0,103.300003052,4.98000001907,5.69999980927,14.4499998093
"2009-01-31 19:00:00",8.96000003815,0.0,106.0,104.900001526,4.96000003815,4.0,14.4600000381
"2009-01-31 20:00:00",7.15999984741,0.0,103.199996948,104.599998474,4.94999980927,1.89999997616,14.4499998093
"2009-01-31 21:00:00",6.23999977112,0.0,104.599998474,78.5999984741,5.42000007629,1.70000004768,13.0699996948
"2009-01-31 22:00:00",4.13000011444,0.0,105.699996948,70.5,5.55999994278,1.70000004768,12.9499998093
"2009-01-31 23:00:00",2.75999999046,0.0,106.5,19.0,6.51000022888,1.79999995232,12.9099998474
